Probability
0 0 0 0 0 0 0 1 3 4 2 1 0 0 0 0 0 0 0 0 0 0 0 0 0 0 0 0 0 0 0 0 0 0 0 0 0 0 0 0 0 0 0
1 0 1 1 0 0 0 1 3 3 1 0 0 0 0 0 0 0 0 0 0 0 0 0 0 0 0 0 0 0 0 0 0 0 0 0 0 0 0 0 0 0 0
2 2 2 2 1 0 0 1 1 1 1 0 0 0 0 0 0 0 0 0 0 0 0 0 0 0 0 0 0 0 0 0 0 0 0 0 0 0 0 0 0 0 0
3 3 4 4 3 1 0 0 0 0 0 0 0 0 0 0 0 0 0 0 0 0 0 0 0 0 0 0 0 0 0 0 0 0 0 0 0 0 0 0 0 0 0
3 4 5 5 5 3 1 0 0 0 0 0 0 0 0 0 0 0 0 0 0 0 0 0 0 0 0 0 0 0 0 0 0 0 0 0 0 0 0 0 0 0 0
3 3 4 5 6 4 1 1 1 0 0 0 0 0 0 0 0 0 0 0 0 0 0 0 0 0 0 0 0 0 0 0 0 0 0 0 0 0 0 0 0 0 0
3 3 4 5 5 5 3 1 0 0 0 0 0 0 0 0 0 0 0 0 0 0 0 0 0 0 0 0 0 0 0 0 0 0 0 0 0 0 0 0 0 0 0
3 3 4 4 5 5 4 1 0 0 0 0 0 0 0 0 0 0 0 0 0 0 0 0 0 0 0 0 0 0 0 0 0 0 0 0 0 0 0 0 0 0 0
4 4 4 4 4 5 4 1 0 0 0 0 0 0 0 0 0 0 0 0 0 0 0 0 0 0 0 0 0 0 0 0 0 0 0 0 0 0 0 0 0 0 0
5 4 3 3 3 3 3 1 0 0 0 0 0 0 0 0 0 0 0 0 0 0 0 0 0 0 0 0 0 0 0 0 0 0 0 0 0 0 0 0 0 0 0
5 3 2 2 2 2 2 1 0 0 0 0 0 0 0 0 0 0 0 0 0 0 0 0 0 0 0 0 0 0 0 0 0 0 0 0 0 0 0 0 0 0 0
5 4 3 3 1 1 1 1 1 0 0 0 0 0 0 0 0 0 0 0 0 0 0 0 0 0 0 0 0 0 0 0 0 0 0 0 0 0 0 0 0 0 0
8 7 5 4 3 1 2 2 2 1 0 0 0 0 0 0 0 0 0 0 0 0 0 0 0 0 0 0 0 0 0 0 0 0 0 0 0 0 0 0 0 0 0
10 9 6 4 3 2 2 2 3 2 1 0 0 0 0 0 0 0 0 0 0 0 0 0 0 0 0 0 0 0 0 0 0 0 0 0 0 0 0 0 0 0 0
10 9 6 4 3 2 1 1 2 2 1 0 0 0 0 0 0 0 0 0 0 0 0 0 0 0 0 0 0 0 0 0 0 0 0 0 0 0 0 0 0 0 0
9 8 6 4 3 1 0 0 1 1 0 0 0 0 0 0 0 0 0 0 0 0 0 0 0 0 0 0 0 0 0 0 0 0 0 0 0 0 0 0 0 0 0
9 8 5 4 3 1 0 0 0 0 0 0 0 0 0 0 0 0 0 0 0 0 0 0 0 0 0 0 0 0 0 0 0 0 0 0 0 0 0 0 0 0 0
11 9 6 4 4 3 1 0 0 0 1 0 0 0 0 0 0 0 0 0 0 0 0 0 0 0 0 0 0 0 0 0 0 0 0 0 0 0 0 0 0 0 0
15 12 8 7 6 4 2 0 0 0 0 0 0 0 0 0 0 0 0 0 0 0 0 0 0 0 0 0 0 0 0 0 0 0 0 0 0 0 0 0 0 0 0
16 14 12 11 8 6 3 1 0 0 0 0 0 0 0 0 0 0 0 0 0 0 0 0 0 0 0 0 0 0 0 0 0 0 0 0 0 0 0 0 0 0 0
16 16 16 13 9 6 4 2 0 0 0 0 0 0 0 0 0 0 0 0 0 0 0 0 0 0 0 0 0 0 0 0 0 0 0 0 0 0 0 0 0 0 0
20 21 19 15 10 7 5 3 1 0 0 0 0 0 0 0 0 1 1 1 0 0 0 0 0 0 0 0 0 0 0 0 0 0 0 0 0 0 0 0 0 0 0
24 24 23 18 14 11 8 7 4 2 2 1 1 0 0 0 0 1 2 2 1 0 0 0 0 0 0 0 0 0 0 0 0 0 0 0 0 0 0 0 0 0 0
26 27 25 24 22 19 15 12 10 7 5 3 2 0 0 0 0 1 2 3 2 1 0 0 0 0 0 0 0 0 0 0 0 0 0 0 0 0 0 0 0 0 0
28 28 27 28 27 24 20 17 14 11 7 4 2 1 1 1 1 2 3 3 2 1 0 0 0 0 0 0 0 0 0 0 0 0 0 0 0 0 0 0 0 0 0
27 27 29 30 28 24 21 19 16 12 8 5 3 2 2 2 2 3 3 3 2 1 0 0 0 0 0 0 0 0 0 0 0 0 0 0 0 0 0 0 0 0 0
Wind_Speed
4 5 11 12 13 13 14 14 15 15 15 15 14 14 14 14 14 14 13 13 13 13 13 13 13 13 13 13 13 13 14 14 14 15 15 16 16 15 15 16 14 11 15
6 6 12 13 13 13 13 14 14 14 14 14 14 14 13 13 13 13 13 12 12 12 12 12 12 13 13 13 14 14 14 14 14 15 15 14 15 15 15 15 14 10 15
8 7 10 13 13 13 13 13 13 13 13 13 13 13 13 12 12 12 12 12 11 11 12 12 12 13 13 13 13 13 13 13 13 14 14 8 10 14 14 14 14 14 14
8 6 9 14 13 13 13 12 12 12 12 12 12 12 12 12 12 12 11 11 11 11 11 12 12 13 13 13 13 13 13 13 14 13 8 7 8 13 14 14 14 14 14
7 6 8 14 13 13 12 12 12 12 12 11 11 11 11 11 11 11 11 11 11 11 11 11 12 12 12 12 12 12 12 13 13 10 7 6 6 12 13 13 13 13 13
6 5 8 14 13 13 12 12 12 11 11 11 10 10 10 10 10 11 10 10 10 10 10 11 12 12 11 11 11 11 12 12 10 7 6 6 5 11 12 12 12 13 13
6 5 7 13 13 12 12 11 11 11 11 10 9 9 9 10 10 10 10 10 9 10 10 11 11 10 10 10 10 11 11 12 8 7 6 5 5 10 12 12 12 12 12
7 5 6 12 12 12 11 11 11 10 10 9 9 9 9 9 9 9 9 9 9 10 10 10 10 9 9 9 9 10 10 11 9 7 6 5 7 9 11 11 11 11 11
6 5 4 5 7 10 10 10 10 10 9 9 8 9 9 9 9 9 8 9 9 9 9 9 9 9 8 8 9 9 10 11 7 5 6 4 7 10 11 11 11 11 11
5 4 3 3 4 4 5 9 10 9 9 8 8 8 8 8 8 8 7 7 8 8 8 9 8 8 8 8 9 9 10 9 6 5 4 5 8 10 11 11 11 11 11
6 3 3 4 3 4 3 6 7 8 7 7 6 7 6 3 3 4 5 6 7 7 7 8 7 7 7 7 8 9 7 3 5 4 3 7 9 10 10 10 10 10 10
8 6 4 4 4 3 3 3 2 2 3 3 3 4 3 3 2 3 3 5 6 6 6 6 6 7 5 3 4 6 3 4 4 3 4 9 9 9 10 10 9 9 9
7 7 5 4 4 3 2 2 2 2 2 2 3 3 3 2 2 2 1 1 2 3 3 3 4 3 3 2 2 3 3 3 2 3 4 9 9 9 9 9 9 9 9
7 7 6 5 4 4 3 2 2 2 1 1 2 3 2 1 1 1 1 1 1 1 2 2 2 2 2 2 3 3 3 3 2 2 4 8 8 9 10 10 9 9 9
8 7 6 6 5 4 3 2 3 2 2 2 2 2 3 2 2 1 1 1 1 1 1 2 2 2 2 2 2 3 3 3 3 3 3 7 8 9 10 10 10 10 9
8 8 7 7 6 5 3 3 2 3 2 2 2 3 4 3 2 2 2 1 1 1 1 1 1 2 1 1 1 2 3 3 3 4 3 5 8 8 9 9 10 10 10
8 7 7 7 6 6 5 4 3 3 3 2 2 3 4 4 3 3 2 2 2 2 2 1 1 2 1 1 1 1 1 2 3 4 4 3 4 7 8 9 9 9 10
7 7 8 8 7 7 5 5 3 3 3 3 3 3 4 4 4 3 3 3 2 2 2 2 2 1 1 1 1 1 1 2 3 4 3 4 3 4 6 9 9 8 9
9 8 8 7 7 7 6 4 3 2 3 3 2 3 3 4 5 4 3 3 3 2 2 2 2 2 2 1 1 1 1 2 3 4 4 5 4 4 4 6 8 9 10
7 7 7 7 7 6 4 2 2 2 2 2 3 3 4 4 5 4 3 3 3 3 2 2 2 2 2 2 1 0 1 2 2 3 4 4 4 5 5 5 4 5 9
7 7 8 8 7 5 4 3 3 2 2 2 2 4 5 5 5 4 3 3 4 3 4 4 3 2 2 2 2 1 1 1 2 3 3 3 4 5 5 5 5 4 4
8 8 8 8 7 7 5 4 2 2 2 2 2 2 4 4 5 5 5 4 4 4 4 4 4 2 2 3 2 1 1 2 1 2 2 4 4 4 5 6 6 5 5
8 9 9 8 8 7 5 3 2 1 1 1 1 2 3 4 5 5 6 5 4 5 4 5 5 5 3 3 2 3 2 2 1 1 2 3 3 3 4 4 5 6 6
9 7 7 7 7 6 6 5 5 4 3 3 2 2 3 4 4 5 5 5 5 4 5 5 5 4 4 3 2 2 2 3 2 1 1 1 3 4 4 4 5 5 5
7 7 6 6 6 6 6 7 5 4 3 2 1 2 3 2 3 4 5 5 5 4 5 5 5 5 4 4 4 3 2 2 2 2 2 2 1 2 3 4 4 4 5
6 6 7 7 6 6 7 6 6 6 4 4 3 3 3 2 2 4 4 4 5 5 5 6 5 6 5 5 4 4 4 3 4 4 4 3 2 2 2 3 3 4 4
Wind_Direction
147 153 134 124 119 115 113 110 108 107 108 110 113 115 116 117 118 118 117 115 115 113 111 110 111 113 114 115 115 117 119 120 120 119 119 118 116 115 113 111 110 110 111
143 144 136 128 124 119 115 113 112 111 111 112 113 114 116 117 118 117 116 115 115 114 113 112 113 115 115 116 118 118 118 120 121 120 119 118 117 116 114 115 115 116 115
133 137 136 132 129 124 120 116 113 113 113 113 114 116 118 118 118 118 117 116 115 114 114 114 114 117 118 118 119 119 119 119 118 117 113 110 116 120 120 119 119 117 117
130 128 137 136 131 128 124 120 117 117 116 115 115 117 119 119 119 117 118 116 115 115 116 116 117 118 120 121 121 122 121 118 115 111 104 111 119 124 121 121 120 119 118
125 126 142 137 135 132 128 124 123 122 119 117 117 119 119 118 119 119 119 116 115 116 117 117 119 119 119 120 122 122 121 119 115 106 100 101 110 125 123 123 123 122 121
125 132 144 139 138 136 133 130 128 125 123 122 122 122 121 121 120 120 119 116 115 116 116 117 120 119 119 119 121 122 122 120 111 106 105 109 115 127 127 127 126 126 125
129 132 144 142 142 141 138 135 132 129 127 126 124 124 123 122 121 119 118 116 116 116 116 118 119 120 121 121 123 124 124 124 115 111 111 114 123 131 129 128 128 127 127
133 131 142 147 147 145 142 139 136 133 131 130 129 127 123 122 123 121 120 118 118 117 116 118 118 119 117 117 118 122 126 128 125 123 119 122 132 131 129 128 129 131 132
128 125 130 141 146 147 145 144 141 137 136 135 132 128 126 124 124 123 122 122 120 120 119 119 120 119 119 120 121 124 125 125 122 128 132 130 138 137 135 134 135 132 132
122 121 119 113 114 126 140 147 144 140 140 140 137 134 132 129 126 123 119 124 125 126 125 122 118 120 121 122 123 125 123 119 123 129 131 143 146 146 142 141 140 138 137
145 135 132 128 126 125 138 152 145 144 142 137 135 135 116 84 86 106 125 132 132 132 129 124 119 116 115 118 123 123 117 117 130 136 142 153 156 154 150 147 145 145 143
170 169 161 151 148 144 151 124 101 105 112 101 93 96 91 88 88 107 126 139 142 137 130 122 116 105 95 92 112 113 110 125 132 147 160 162 164 163 158 155 153 153 152
173 175 172 166 162 155 133 126 110 97 102 106 110 108 103 89 71 70 65 79 92 102 88 96 91 86 95 104 105 112 125 127 136 156 168 171 173 172 167 166 166 164 164
171 181 174 171 168 165 149 143 140 136 135 140 142 135 124 118 120 116 110 98 77 76 86 84 92 94 100 117 126 132 140 144 153 161 178 181 181 178 177 176 176 177 177
180 184 181 177 175 169 160 169 163 165 167 173 164 163 160 162 173 161 150 135 119 106 109 109 107 106 109 121 147 154 159 163 169 172 180 192 190 186 185 184 187 189 187
188 187 183 182 178 172 176 182 179 177 174 173 181 185 182 178 177 172 172 168 167 146 134 131 128 116 120 130 147 156 166 168 173 176 186 201 201 195 193 194 199 200 197
188 182 183 185 178 182 184 191 191 186 177 184 196 195 190 184 183 178 178 186 191 163 145 123 112 105 122 131 136 167 174 177 178 185 191 199 205 206 206 206 207 209 208
177 179 186 193 183 187 187 189 189 190 185 194 195 195 195 190 183 179 185 199 189 163 155 148 137 122 127 143 167 202 194 192 196 194 197 201 204 212 216 216 214 215 216
182 181 181 191 185 188 188 182 182 187 193 199 196 192 195 192 187 184 193 198 178 166 172 183 149 147 162 181 198 203 208 211 212 206 206 208 207 211 218 225 225 222 223
179 179 181 191 189 182 171 159 169 185 201 197 199 198 193 194 191 188 197 195 172 167 178 175 155 149 162 175 187 189 244 238 221 217 219 214 214 218 220 227 228 227 226
175 179 185 187 185 172 166 172 179 197 199 202 209 201 195 195 191 191 198 187 180 187 194 177 157 161 170 145 119 41 333 256 233 233 224 219 224 224 221 223 224 223 227
184 186 186 190 185 182 183 174 171 170 189 197 212 206 202 198 197 200 194 192 188 188 191 182 164 158 179 168 152 132 321 327 285 236 219 220 226 222 223 224 223 222 224
192 192 193 192 187 184 173 144 122 102 70 141 205 214 217 206 204 203 197 196 194 190 197 195 184 177 190 196 181 160 172 230 290 298 237 225 220 219 229 227 223 223 220
200 192 191 184 182 178 168 171 174 185 200 212 204 214 226 216 215 208 202 200 203 199 201 203 196 188 179 194 199 206 192 170 182 276 296 243 225 225 229 228 228 224 219
191 184 183 177 181 179 180 186 188 201 206 200 196 223 236 229 223 213 206 201 204 207 210 208 195 196 191 192 192 183 186 189 193 200 250 264 249 233 226 225 226 224 221
179 176 174 176 186 185 187 188 192 202 200 197 207 218 229 233 230 220 210 205 208 209 213 212 207 203 204 204 203 192 182 184 195 195 220 236 246 248 228 224 222 224 224